Location: Ajisawe
(8.4333°N, 4.3833°E)
Time: 23:43:26
(UTC+00:00)

Vanguard 1 Rocket - Pass Details

Date: 21 April 2021
Orbit: 652 x 4224 km, 34.3° (Epoch: 10 May)

Event Time Altitude Azimuth Distance (km) Brightness Sun altitude
Exits shadow 01:16:25 10° 168° (SSE) 7,258 11.8 -58.8°
Drops below altitude 10° 01:17:02 10° 167° (SSE) 7,312 11.8 -58.7°
Sets 01:29:16 0° 144° (SE) 8,447 12.3 -56.3°
